Index of /20260504/WXO-DD/model_rdps/10km/18/019
Name Last modified Size Description
Parent Directory -
20260504T18Z_MSC_RDPS_AbsoluteVorticity_IsbL-0250_RLatLon0.09_PT019H.grib2 2026-05-04 20:46 602K
20260504T18Z_MSC_RDPS_AbsoluteVorticity_IsbL-0500_RLatLon0.09_PT019H.grib2 2026-05-04 20:46 563K
20260504T18Z_MSC_RDPS_AbsoluteVorticity_IsbL-0700_RLatLon0.09_PT019H.grib2 2026-05-04 20:46 617K
20260504T18Z_MSC_RDPS_AbsoluteVorticity_IsbL-0850_RLatLon0.09_PT019H.grib2 2026-05-04 20:46 799K
20260504T18Z_MSC_RDPS_AirTemp_AGL-120m_RLatLon0.09_PT019H.grib2 2026-05-04 20:46 382K
20260504T18Z_MSC_RDPS_AirTemp_AGL-2m_RLatLon0.09_PT019H.grib2 2026-05-04 20:46 626K
20260504T18Z_MSC_RDPS_AirTemp_AGL-40m_RLatLon0.09_PT019H.grib2 2026-05-04 20:46 395K
20260504T18Z_MSC_RDPS_AirTemp_AGL-80m_RLatLon0.09_PT019H.grib2 2026-05-04 20:46 388K
20260504T18Z_MSC_RDPS_AirTemp_IsbL-0001_RLatLon0.09_PT019H.grib2 2026-05-04 20:46 315K
20260504T18Z_MSC_RDPS_AirTemp_IsbL-0005_RLatLon0.09_PT019H.grib2 2026-05-04 20:46 287K
20260504T18Z_MSC_RDPS_AirTemp_IsbL-0010_RLatLon0.09_PT019H.grib2 2026-05-04 20:46 296K
20260504T18Z_MSC_RDPS_AirTemp_IsbL-0020_RLatLon0.09_PT019H.grib2 2026-05-04 20:46 313K
20260504T18Z_MSC_RDPS_AirTemp_IsbL-0030_RLatLon0.09_PT019H.grib2 2026-05-04 20:46 335K
20260504T18Z_MSC_RDPS_AirTemp_IsbL-0050_RLatLon0.09_PT019H.grib2 2026-05-04 20:46 318K
20260504T18Z_MSC_RDPS_AirTemp_IsbL-0100_RLatLon0.09_PT019H.grib2 2026-05-04 20:46 428K
20260504T18Z_MSC_RDPS_AirTemp_IsbL-0150_RLatLon0.09_PT019H.grib2 2026-05-04 20:46 417K
20260504T18Z_MSC_RDPS_AirTemp_IsbL-0175_RLatLon0.09_PT019H.grib2 2026-05-04 20:46 408K
20260504T18Z_MSC_RDPS_AirTemp_IsbL-0200_RLatLon0.09_PT019H.grib2 2026-05-04 20:46 412K
20260504T18Z_MSC_RDPS_AirTemp_IsbL-0225_RLatLon0.09_PT019H.grib2 2026-05-04 20:46 411K
20260504T18Z_MSC_RDPS_AirTemp_IsbL-0250_RLatLon0.09_PT019H.grib2 2026-05-04 20:46 416K
20260504T18Z_MSC_RDPS_AirTemp_IsbL-0275_RLatLon0.09_PT019H.grib2 2026-05-04 20:46 400K
20260504T18Z_MSC_RDPS_AirTemp_IsbL-0300_RLatLon0.09_PT019H.grib2 2026-05-04 20:46 409K
20260504T18Z_MSC_RDPS_AirTemp_IsbL-0350_RLatLon0.09_PT019H.grib2 2026-05-04 20:46 425K
20260504T18Z_MSC_RDPS_AirTemp_IsbL-0400_RLatLon0.09_PT019H.grib2 2026-05-04 20:46 428K
20260504T18Z_MSC_RDPS_AirTemp_IsbL-0450_RLatLon0.09_PT019H.grib2 2026-05-04 20:46 436K
20260504T18Z_MSC_RDPS_AirTemp_IsbL-0500_RLatLon0.09_PT019H.grib2 2026-05-04 20:46 448K
20260504T18Z_MSC_RDPS_AirTemp_IsbL-0550_RLatLon0.09_PT019H.grib2 2026-05-04 20:46 463K
20260504T18Z_MSC_RDPS_AirTemp_IsbL-0600_RLatLon0.09_PT019H.grib2 2026-05-04 20:46 481K
20260504T18Z_MSC_RDPS_AirTemp_IsbL-0650_RLatLon0.09_PT019H.grib2 2026-05-04 20:46 460K
20260504T18Z_MSC_RDPS_AirTemp_IsbL-0700_RLatLon0.09_PT019H.grib2 2026-05-04 20:46 487K
20260504T18Z_MSC_RDPS_AirTemp_IsbL-0750_RLatLon0.09_PT019H.grib2 2026-05-04 20:46 528K
20260504T18Z_MSC_RDPS_AirTemp_IsbL-0800_RLatLon0.09_PT019H.grib2 2026-05-04 20:46 584K
20260504T18Z_MSC_RDPS_AirTemp_IsbL-0850_RLatLon0.09_PT019H.grib2 2026-05-04 20:46 646K
20260504T18Z_MSC_RDPS_AirTemp_IsbL-0875_RLatLon0.09_PT019H.grib2 2026-05-04 20:46 665K
20260504T18Z_MSC_RDPS_AirTemp_IsbL-0900_RLatLon0.09_PT019H.grib2 2026-05-04 20:46 540K
20260504T18Z_MSC_RDPS_AirTemp_IsbL-0925_RLatLon0.09_PT019H.grib2 2026-05-04 20:46 666K
20260504T18Z_MSC_RDPS_AirTemp_IsbL-0950_RLatLon0.09_PT019H.grib2 2026-05-04 20:46 661K
20260504T18Z_MSC_RDPS_AirTemp_IsbL-0970_RLatLon0.09_PT019H.grib2 2026-05-04 20:46 652K
20260504T18Z_MSC_RDPS_AirTemp_IsbL-0985_RLatLon0.09_PT019H.grib2 2026-05-04 20:46 511K
20260504T18Z_MSC_RDPS_AirTemp_IsbL-1000_RLatLon0.09_PT019H.grib2 2026-05-04 20:46 498K
20260504T18Z_MSC_RDPS_AirTemp_IsbL-1015_RLatLon0.09_PT019H.grib2 2026-05-04 20:46 504K
20260504T18Z_MSC_RDPS_Albedo_Sfc_RLatLon0.09_PT019H.grib2 2026-05-04 20:46 153K
20260504T18Z_MSC_RDPS_CAPE_Sfc_RLatLon0.09_PT019H.grib2 2026-05-04 20:46 1.7M
20260504T18Z_MSC_RDPS_CIN_Sfc_RLatLon0.09_PT019H.grib2 2026-05-04 20:46 1.1M
20260504T18Z_MSC_RDPS_CloudWater_EAtm_RLatLon0.09_PT019H.grib2 2026-05-04 20:46 221K
20260504T18Z_MSC_RDPS_ConvectivePrecip-Accum_Sfc_RLatLon0.09_PT019H.grib2 2026-05-04 20:46 723K
20260504T18Z_MSC_RDPS_DewPointDepression_AGL-2m_RLatLon0.09_PT019H.grib2 2026-05-04 20:46 411K
20260504T18Z_MSC_RDPS_DewPointDepression_IsbL-0001_RLatLon0.09_PT019H.grib2 2026-05-04 20:46 193
20260504T18Z_MSC_RDPS_DewPointDepression_IsbL-0005_RLatLon0.09_PT019H.grib2 2026-05-04 20:46 193
20260504T18Z_MSC_RDPS_DewPointDepression_IsbL-0010_RLatLon0.09_PT019H.grib2 2026-05-04 20:46 193
20260504T18Z_MSC_RDPS_DewPointDepression_IsbL-0020_RLatLon0.09_PT019H.grib2 2026-05-04 20:46 193
20260504T18Z_MSC_RDPS_DewPointDepression_IsbL-0030_RLatLon0.09_PT019H.grib2 2026-05-04 20:46 193
20260504T18Z_MSC_RDPS_DewPointDepression_IsbL-0050_RLatLon0.09_PT019H.grib2 2026-05-04 20:46 107K
20260504T18Z_MSC_RDPS_DewPointDepression_IsbL-0100_RLatLon0.09_PT019H.grib2 2026-05-04 20:46 116K
20260504T18Z_MSC_RDPS_DewPointDepression_IsbL-0150_RLatLon0.09_PT019H.grib2 2026-05-04 20:46 140K
20260504T18Z_MSC_RDPS_DewPointDepression_IsbL-0175_RLatLon0.09_PT019H.grib2 2026-05-04 20:46 174K
20260504T18Z_MSC_RDPS_DewPointDepression_IsbL-0200_RLatLon0.09_PT019H.grib2 2026-05-04 20:46 216K
20260504T18Z_MSC_RDPS_DewPointDepression_IsbL-0225_RLatLon0.09_PT019H.grib2 2026-05-04 20:46 249K
20260504T18Z_MSC_RDPS_DewPointDepression_IsbL-0250_RLatLon0.09_PT019H.grib2 2026-05-04 20:46 290K
20260504T18Z_MSC_RDPS_DewPointDepression_IsbL-0275_RLatLon0.09_PT019H.grib2 2026-05-04 20:46 302K
20260504T18Z_MSC_RDPS_DewPointDepression_IsbL-0300_RLatLon0.09_PT019H.grib2 2026-05-04 20:46 322K
20260504T18Z_MSC_RDPS_DewPointDepression_IsbL-0350_RLatLon0.09_PT019H.grib2 2026-05-04 20:46 327K
20260504T18Z_MSC_RDPS_DewPointDepression_IsbL-0400_RLatLon0.09_PT019H.grib2 2026-05-04 20:46 336K
20260504T18Z_MSC_RDPS_DewPointDepression_IsbL-0450_RLatLon0.09_PT019H.grib2 2026-05-04 20:46 343K
20260504T18Z_MSC_RDPS_DewPointDepression_IsbL-0500_RLatLon0.09_PT019H.grib2 2026-05-04 20:46 346K
20260504T18Z_MSC_RDPS_DewPointDepression_IsbL-0550_RLatLon0.09_PT019H.grib2 2026-05-04 20:46 356K
20260504T18Z_MSC_RDPS_DewPointDepression_IsbL-0600_RLatLon0.09_PT019H.grib2 2026-05-04 20:46 363K
20260504T18Z_MSC_RDPS_DewPointDepression_IsbL-0650_RLatLon0.09_PT019H.grib2 2026-05-04 20:46 368K
20260504T18Z_MSC_RDPS_DewPointDepression_IsbL-0700_RLatLon0.09_PT019H.grib2 2026-05-04 20:46 381K
20260504T18Z_MSC_RDPS_DewPointDepression_IsbL-0750_RLatLon0.09_PT019H.grib2 2026-05-04 20:46 402K
20260504T18Z_MSC_RDPS_DewPointDepression_IsbL-0800_RLatLon0.09_PT019H.grib2 2026-05-04 20:46 439K
20260504T18Z_MSC_RDPS_DewPointDepression_IsbL-0850_RLatLon0.09_PT019H.grib2 2026-05-04 20:46 475K
20260504T18Z_MSC_RDPS_DewPointDepression_IsbL-0875_RLatLon0.09_PT019H.grib2 2026-05-04 20:46 474K
20260504T18Z_MSC_RDPS_DewPointDepression_IsbL-0900_RLatLon0.09_PT019H.grib2 2026-05-04 20:46 464K
20260504T18Z_MSC_RDPS_DewPointDepression_IsbL-0925_RLatLon0.09_PT019H.grib2 2026-05-04 20:46 449K
20260504T18Z_MSC_RDPS_DewPointDepression_IsbL-0950_RLatLon0.09_PT019H.grib2 2026-05-04 20:46 442K
20260504T18Z_MSC_RDPS_DewPointDepression_IsbL-0970_RLatLon0.09_PT019H.grib2 2026-05-04 20:46 439K
20260504T18Z_MSC_RDPS_DewPointDepression_IsbL-0985_RLatLon0.09_PT019H.grib2 2026-05-04 20:46 438K
20260504T18Z_MSC_RDPS_DewPointDepression_IsbL-1000_RLatLon0.09_PT019H.grib2 2026-05-04 20:46 435K
20260504T18Z_MSC_RDPS_DewPointDepression_IsbL-1015_RLatLon0.09_PT019H.grib2 2026-05-04 20:46 428K
20260504T18Z_MSC_RDPS_DewPoint_AGL-2m_RLatLon0.09_PT019H.grib2 2026-05-04 20:46 399K
20260504T18Z_MSC_RDPS_DownwardLongwaveRadiationFlux-Accum_Sfc_RLatLon0.09_PT019H.grib2 2026-05-04 20:46 412K
20260504T18Z_MSC_RDPS_DownwardShortwaveRadiationFlux-Accum_NTAtm_RLatLon0.09_PT019H.grib2 2026-05-04 20:46 94K
20260504T18Z_MSC_RDPS_DownwardShortwaveRadiationFlux-Accum_Sfc_RLatLon0.09_PT019H.grib2 2026-05-04 20:46 588K
20260504T18Z_MSC_RDPS_FreezingRain-Accum1h_Sfc_RLatLon0.09_PT019H.grib2 2026-05-04 20:46 38K
20260504T18Z_MSC_RDPS_FreezingRain-Accum_Sfc_RLatLon0.09_PT019H.grib2 2026-05-04 20:46 90K
20260504T18Z_MSC_RDPS_GeopotentialHeight_IsbL-0001_RLatLon0.09_PT019H.grib2 2026-05-04 20:46 319K
20260504T18Z_MSC_RDPS_GeopotentialHeight_IsbL-0005_RLatLon0.09_PT019H.grib2 2026-05-04 20:46 309K
20260504T18Z_MSC_RDPS_GeopotentialHeight_IsbL-0010_RLatLon0.09_PT019H.grib2 2026-05-04 20:46 309K
20260504T18Z_MSC_RDPS_GeopotentialHeight_IsbL-0020_RLatLon0.09_PT019H.grib2 2026-05-04 20:46 407K
20260504T18Z_MSC_RDPS_GeopotentialHeight_IsbL-0030_RLatLon0.09_PT019H.grib2 2026-05-04 20:46 409K
20260504T18Z_MSC_RDPS_GeopotentialHeight_IsbL-0050_RLatLon0.09_PT019H.grib2 2026-05-04 20:46 314K
20260504T18Z_MSC_RDPS_GeopotentialHeight_IsbL-0100_RLatLon0.09_PT019H.grib2 2026-05-04 20:46 288K
20260504T18Z_MSC_RDPS_GeopotentialHeight_IsbL-0150_RLatLon0.09_PT019H.grib2 2026-05-04 20:46 229K
20260504T18Z_MSC_RDPS_GeopotentialHeight_IsbL-0175_RLatLon0.09_PT019H.grib2 2026-05-04 20:46 232K
20260504T18Z_MSC_RDPS_GeopotentialHeight_IsbL-0200_RLatLon0.09_PT019H.grib2 2026-05-04 20:46 235K
20260504T18Z_MSC_RDPS_GeopotentialHeight_IsbL-0225_RLatLon0.09_PT019H.grib2 2026-05-04 20:46 237K
20260504T18Z_MSC_RDPS_GeopotentialHeight_IsbL-0250_RLatLon0.09_PT019H.grib2 2026-05-04 20:46 238K
20260504T18Z_MSC_RDPS_GeopotentialHeight_IsbL-0275_RLatLon0.09_PT019H.grib2 2026-05-04 20:46 237K
20260504T18Z_MSC_RDPS_GeopotentialHeight_IsbL-0300_RLatLon0.09_PT019H.grib2 2026-05-04 20:46 236K
20260504T18Z_MSC_RDPS_GeopotentialHeight_IsbL-0350_RLatLon0.09_PT019H.grib2 2026-05-04 20:46 232K
20260504T18Z_MSC_RDPS_GeopotentialHeight_IsbL-0400_RLatLon0.09_PT019H.grib2 2026-05-04 20:46 305K
20260504T18Z_MSC_RDPS_GeopotentialHeight_IsbL-0450_RLatLon0.09_PT019H.grib2 2026-05-04 20:46 300K
20260504T18Z_MSC_RDPS_GeopotentialHeight_IsbL-0500_RLatLon0.09_PT019H.grib2 2026-05-04 20:46 296K
20260504T18Z_MSC_RDPS_GeopotentialHeight_IsbL-0550_RLatLon0.09_PT019H.grib2 2026-05-04 20:46 293K
20260504T18Z_MSC_RDPS_GeopotentialHeight_IsbL-0600_RLatLon0.09_PT019H.grib2 2026-05-04 20:46 287K
20260504T18Z_MSC_RDPS_GeopotentialHeight_IsbL-0650_RLatLon0.09_PT019H.grib2 2026-05-04 20:46 258K
20260504T18Z_MSC_RDPS_GeopotentialHeight_IsbL-0700_RLatLon0.09_PT019H.grib2 2026-05-04 20:46 258K
20260504T18Z_MSC_RDPS_GeopotentialHeight_IsbL-0750_RLatLon0.09_PT019H.grib2 2026-05-04 20:46 345K
20260504T18Z_MSC_RDPS_GeopotentialHeight_IsbL-0800_RLatLon0.09_PT019H.grib2 2026-05-04 20:46 354K
20260504T18Z_MSC_RDPS_GeopotentialHeight_IsbL-0850_RLatLon0.09_PT019H.grib2 2026-05-04 20:46 365K
20260504T18Z_MSC_RDPS_GeopotentialHeight_IsbL-0875_RLatLon0.09_PT019H.grib2 2026-05-04 20:46 368K
20260504T18Z_MSC_RDPS_GeopotentialHeight_IsbL-0900_RLatLon0.09_PT019H.grib2 2026-05-04 20:46 370K
20260504T18Z_MSC_RDPS_GeopotentialHeight_IsbL-0925_RLatLon0.09_PT019H.grib2 2026-05-04 20:46 283K
20260504T18Z_MSC_RDPS_GeopotentialHeight_IsbL-0950_RLatLon0.09_PT019H.grib2 2026-05-04 20:46 286K
20260504T18Z_MSC_RDPS_GeopotentialHeight_IsbL-0970_RLatLon0.09_PT019H.grib2 2026-05-04 20:46 290K
20260504T18Z_MSC_RDPS_GeopotentialHeight_IsbL-0985_RLatLon0.09_PT019H.grib2 2026-05-04 20:46 296K
20260504T18Z_MSC_RDPS_GeopotentialHeight_IsbL-1000_RLatLon0.09_PT019H.grib2 2026-05-04 20:46 305K
20260504T18Z_MSC_RDPS_GeopotentialHeight_IsbL-1015_RLatLon0.09_PT019H.grib2 2026-05-04 20:46 318K
20260504T18Z_MSC_RDPS_Humidex_Sfc_RLatLon0.09_PT019H.grib2 2026-05-04 20:46 2.4M
20260504T18Z_MSC_RDPS_IcePellets-Accum1h_Sfc_RLatLon0.09_PT019H.grib2 2026-05-04 20:46 10K
20260504T18Z_MSC_RDPS_IcePellets-Accum_Sfc_RLatLon0.09_PT019H.grib2 2026-05-04 20:46 23K
20260504T18Z_MSC_RDPS_KIndex_Sfc_RLatLon0.09_PT019H.grib2 2026-05-04 20:46 2.5M
20260504T18Z_MSC_RDPS_LatentHeatNetFlux_Sfc_RLatLon0.09_PT019H.grib2 2026-05-04 20:46 358K
20260504T18Z_MSC_RDPS_LiftedIndex-MU-VT_IsbL-0500_RLatLon0.09_PT019H.grib2 2026-05-04 20:46 2.4M
20260504T18Z_MSC_RDPS_NetLongwaveRadiationFlux-Accum_Sfc_RLatLon0.09_PT019H.grib2 2026-05-04 20:46 548K
20260504T18Z_MSC_RDPS_NetShortwaveRadiationFlux-Accum_Sfc_RLatLon0.09_PT019H.grib2 2026-05-04 20:46 578K
20260504T18Z_MSC_RDPS_PlanetaryBoundaryLayerHeight_Sfc_RLatLon0.09_PT019H.grib2 2026-05-04 20:46 1.0M
20260504T18Z_MSC_RDPS_Precip-Accum1h_Sfc_RLatLon0.09_PT019H.grib2 2026-05-04 20:46 1.3M
20260504T18Z_MSC_RDPS_Precip-Accum_Sfc_RLatLon0.09_PT019H.grib2 2026-05-04 20:46 1.8M
20260504T18Z_MSC_RDPS_PrecipRate_Sfc_RLatLon0.09_PT019H.grib2 2026-05-04 20:46 194K
20260504T18Z_MSC_RDPS_PrecipType-Instant_Sfc_RLatLon0.09_PT019H.grib2 2026-05-04 20:46 623K
20260504T18Z_MSC_RDPS_Pressure-Trend3h_Sfc_RLatLon0.09_PT019H.grib2 2026-05-04 20:46 1.2M
20260504T18Z_MSC_RDPS_Pressure_MSL_RLatLon0.09_PT019H.grib2 2026-05-04 20:46 330K
20260504T18Z_MSC_RDPS_Pressure_PVU-1.5_RLatLon0.09_PT019H.grib2 2026-05-04 20:46 2.5M
20260504T18Z_MSC_RDPS_Pressure_PVU-1_RLatLon0.09_PT019H.grib2 2026-05-04 20:46 2.4M
20260504T18Z_MSC_RDPS_Pressure_PVU-2_RLatLon0.09_PT019H.grib2 2026-05-04 20:46 2.4M
20260504T18Z_MSC_RDPS_Pressure_Sfc_RLatLon0.09_PT019H.grib2 2026-05-04 20:46 500K
20260504T18Z_MSC_RDPS_RadiativeTemp_Sfc_RLatLon0.09_PT019H.grib2 2026-05-04 20:46 301K
20260504T18Z_MSC_RDPS_Rain-Accum1h_Sfc_RLatLon0.09_PT019H.grib2 2026-05-04 20:46 652K
20260504T18Z_MSC_RDPS_Rain-Accum_Sfc_RLatLon0.09_PT019H.grib2 2026-05-04 20:46 1.4M
20260504T18Z_MSC_RDPS_RelativeHumidity_AGL-2m_RLatLon0.09_PT019H.grib2 2026-05-04 20:46 1.0M
20260504T18Z_MSC_RDPS_RelativeHumidity_IsbL-0010_RLatLon0.09_PT019H.grib2 2026-05-04 20:46 707K
20260504T18Z_MSC_RDPS_RelativeHumidity_IsbL-0020_RLatLon0.09_PT019H.grib2 2026-05-04 20:46 680K
20260504T18Z_MSC_RDPS_RelativeHumidity_IsbL-0030_RLatLon0.09_PT019H.grib2 2026-05-04 20:46 604K
20260504T18Z_MSC_RDPS_RelativeHumidity_IsbL-0050_RLatLon0.09_PT019H.grib2 2026-05-04 20:46 362K
20260504T18Z_MSC_RDPS_RelativeHumidity_IsbL-0100_RLatLon0.09_PT019H.grib2 2026-05-04 20:46 286K
20260504T18Z_MSC_RDPS_RelativeHumidity_IsbL-0150_RLatLon0.09_PT019H.grib2 2026-05-04 20:46 413K
20260504T18Z_MSC_RDPS_RelativeHumidity_IsbL-0175_RLatLon0.09_PT019H.grib2 2026-05-04 20:46 478K
20260504T18Z_MSC_RDPS_RelativeHumidity_IsbL-0200_RLatLon0.09_PT019H.grib2 2026-05-04 20:46 557K
20260504T18Z_MSC_RDPS_RelativeHumidity_IsbL-0225_RLatLon0.09_PT019H.grib2 2026-05-04 20:46 616K
20260504T18Z_MSC_RDPS_RelativeHumidity_IsbL-0250_RLatLon0.09_PT019H.grib2 2026-05-04 20:46 674K
20260504T18Z_MSC_RDPS_RelativeHumidity_IsbL-0275_RLatLon0.09_PT019H.grib2 2026-05-04 20:46 701K
20260504T18Z_MSC_RDPS_RelativeHumidity_IsbL-0300_RLatLon0.09_PT019H.grib2 2026-05-04 20:46 746K
20260504T18Z_MSC_RDPS_RelativeHumidity_IsbL-0350_RLatLon0.09_PT019H.grib2 2026-05-04 20:46 769K
20260504T18Z_MSC_RDPS_RelativeHumidity_IsbL-0400_RLatLon0.09_PT019H.grib2 2026-05-04 20:46 781K
20260504T18Z_MSC_RDPS_RelativeHumidity_IsbL-0450_RLatLon0.09_PT019H.grib2 2026-05-04 20:46 788K
20260504T18Z_MSC_RDPS_RelativeHumidity_IsbL-0500_RLatLon0.09_PT019H.grib2 2026-05-04 20:46 790K
20260504T18Z_MSC_RDPS_RelativeHumidity_IsbL-0550_RLatLon0.09_PT019H.grib2 2026-05-04 20:46 805K
20260504T18Z_MSC_RDPS_RelativeHumidity_IsbL-0600_RLatLon0.09_PT019H.grib2 2026-05-04 20:46 830K
20260504T18Z_MSC_RDPS_RelativeHumidity_IsbL-0650_RLatLon0.09_PT019H.grib2 2026-05-04 20:46 834K
20260504T18Z_MSC_RDPS_RelativeHumidity_IsbL-0700_RLatLon0.09_PT019H.grib2 2026-05-04 20:46 868K
20260504T18Z_MSC_RDPS_RelativeHumidity_IsbL-0750_RLatLon0.09_PT019H.grib2 2026-05-04 20:46 920K
20260504T18Z_MSC_RDPS_RelativeHumidity_IsbL-0800_RLatLon0.09_PT019H.grib2 2026-05-04 20:46 1.0M
20260504T18Z_MSC_RDPS_RelativeHumidity_IsbL-0850_RLatLon0.09_PT019H.grib2 2026-05-04 20:46 1.0M
20260504T18Z_MSC_RDPS_RelativeHumidity_IsbL-0875_RLatLon0.09_PT019H.grib2 2026-05-04 20:46 1.1M
20260504T18Z_MSC_RDPS_RelativeHumidity_IsbL-0900_RLatLon0.09_PT019H.grib2 2026-05-04 20:46 1.1M
20260504T18Z_MSC_RDPS_RelativeHumidity_IsbL-0925_RLatLon0.09_PT019H.grib2 2026-05-04 20:46 1.1M
20260504T18Z_MSC_RDPS_RelativeHumidity_IsbL-0950_RLatLon0.09_PT019H.grib2 2026-05-04 20:46 1.1M
20260504T18Z_MSC_RDPS_RelativeHumidity_IsbL-0970_RLatLon0.09_PT019H.grib2 2026-05-04 20:46 1.1M
20260504T18Z_MSC_RDPS_RelativeHumidity_IsbL-0985_RLatLon0.09_PT019H.grib2 2026-05-04 20:46 1.1M
20260504T18Z_MSC_RDPS_RelativeHumidity_IsbL-1000_RLatLon0.09_PT019H.grib2 2026-05-04 20:46 1.0M
20260504T18Z_MSC_RDPS_RelativeHumidity_IsbL-1015_RLatLon0.09_PT019H.grib2 2026-05-04 20:46 1.0M
20260504T18Z_MSC_RDPS_Runoff-Accum_Sfc_RLatLon0.09_PT019H.grib2 2026-05-04 20:46 48K
20260504T18Z_MSC_RDPS_SWEATIndex_Sfc_RLatLon0.09_PT019H.grib2 2026-05-04 20:46 2.4M
20260504T18Z_MSC_RDPS_SeeingIndex_EAtm_RLatLon0.09_PT019H.grib2 2026-05-04 20:46 1.0M
20260504T18Z_MSC_RDPS_SensibleHeatNetFlux_Sfc_RLatLon0.09_PT019H.grib2 2026-05-04 20:46 329K
20260504T18Z_MSC_RDPS_ShowalterIndex_IsbL-0500_RLatLon0.09_PT019H.grib2 2026-05-04 20:46 2.6M
20260504T18Z_MSC_RDPS_SkyTransparencyIndex_EAtm_RLatLon0.09_PT019H.grib2 2026-05-04 20:46 702K
20260504T18Z_MSC_RDPS_Snow-Accum1h_Sfc_RLatLon0.09_PT019H.grib2 2026-05-04 20:46 469K
20260504T18Z_MSC_RDPS_Snow-Accum_Sfc_RLatLon0.09_PT019H.grib2 2026-05-04 20:46 670K
20260504T18Z_MSC_RDPS_SnowDensity_Sfc_RLatLon0.09_PT019H.grib2 2026-05-04 20:46 171K
20260504T18Z_MSC_RDPS_SnowDepth_Sfc_RLatLon0.09_PT019H.grib2 2026-05-04 20:46 650K
20260504T18Z_MSC_RDPS_SoilTemp_DBS-0to10cm_RLatLon0.09_PT019H.grib2 2026-05-04 20:46 219K
20260504T18Z_MSC_RDPS_SoilTemp_Sfc_RLatLon0.09_PT019H.grib2 2026-05-04 20:46 278K
20260504T18Z_MSC_RDPS_SoilVolumetricIceContent_Sfc_RLatLon0.09_PT019H.grib2 2026-05-04 20:46 153K
20260504T18Z_MSC_RDPS_SoilVolumetricWaterContent_DBS-0to10cm_RLatLon0.09_PT019H.grib2 2026-05-04 20:46 277K
20260504T18Z_MSC_RDPS_SoilVolumetricWaterContent_DBS-0to1cm_RLatLon0.09_PT019H.grib2 2026-05-04 20:46 338K
20260504T18Z_MSC_RDPS_SpecificHumidity_AGL-120m_RLatLon0.09_PT019H.grib2 2026-05-04 20:46 498K
20260504T18Z_MSC_RDPS_SpecificHumidity_AGL-2m_RLatLon0.09_PT019H.grib2 2026-05-04 20:46 669K
20260504T18Z_MSC_RDPS_SpecificHumidity_AGL-40m_RLatLon0.09_PT019H.grib2 2026-05-04 20:46 505K
20260504T18Z_MSC_RDPS_SpecificHumidity_AGL-80m_RLatLon0.09_PT019H.grib2 2026-05-04 20:46 500K
20260504T18Z_MSC_RDPS_SpecificHumidity_IsbL-0001_RLatLon0.09_PT019H.grib2 2026-05-04 20:46 301K
20260504T18Z_MSC_RDPS_SpecificHumidity_IsbL-0005_RLatLon0.09_PT019H.grib2 2026-05-04 20:46 372K
20260504T18Z_MSC_RDPS_SpecificHumidity_IsbL-0010_RLatLon0.09_PT019H.grib2 2026-05-04 20:46 404K
20260504T18Z_MSC_RDPS_SpecificHumidity_IsbL-0020_RLatLon0.09_PT019H.grib2 2026-05-04 20:46 388K
20260504T18Z_MSC_RDPS_SpecificHumidity_IsbL-0030_RLatLon0.09_PT019H.grib2 2026-05-04 20:46 379K
20260504T18Z_MSC_RDPS_SpecificHumidity_IsbL-0050_RLatLon0.09_PT019H.grib2 2026-05-04 20:46 378K
20260504T18Z_MSC_RDPS_SpecificHumidity_IsbL-0100_RLatLon0.09_PT019H.grib2 2026-05-04 20:46 425K
20260504T18Z_MSC_RDPS_SpecificHumidity_IsbL-0150_RLatLon0.09_PT019H.grib2 2026-05-04 20:46 451K
20260504T18Z_MSC_RDPS_SpecificHumidity_IsbL-0175_RLatLon0.09_PT019H.grib2 2026-05-04 20:46 441K
20260504T18Z_MSC_RDPS_SpecificHumidity_IsbL-0200_RLatLon0.09_PT019H.grib2 2026-05-04 20:46 460K
20260504T18Z_MSC_RDPS_SpecificHumidity_IsbL-0225_RLatLon0.09_PT019H.grib2 2026-05-04 20:46 457K
20260504T18Z_MSC_RDPS_SpecificHumidity_IsbL-0250_RLatLon0.09_PT019H.grib2 2026-05-04 20:46 558K
20260504T18Z_MSC_RDPS_SpecificHumidity_IsbL-0275_RLatLon0.09_PT019H.grib2 2026-05-04 20:46 476K
20260504T18Z_MSC_RDPS_SpecificHumidity_IsbL-0300_RLatLon0.09_PT019H.grib2 2026-05-04 20:46 549K
20260504T18Z_MSC_RDPS_SpecificHumidity_IsbL-0350_RLatLon0.09_PT019H.grib2 2026-05-04 20:46 542K
20260504T18Z_MSC_RDPS_SpecificHumidity_IsbL-0400_RLatLon0.09_PT019H.grib2 2026-05-04 20:46 520K
20260504T18Z_MSC_RDPS_SpecificHumidity_IsbL-0450_RLatLon0.09_PT019H.grib2 2026-05-04 20:46 570K
20260504T18Z_MSC_RDPS_SpecificHumidity_IsbL-0500_RLatLon0.09_PT019H.grib2 2026-05-04 20:46 502K
20260504T18Z_MSC_RDPS_SpecificHumidity_IsbL-0550_RLatLon0.09_PT019H.grib2 2026-05-04 20:46 555K
20260504T18Z_MSC_RDPS_SpecificHumidity_IsbL-0600_RLatLon0.09_PT019H.grib2 2026-05-04 20:46 618K
20260504T18Z_MSC_RDPS_SpecificHumidity_IsbL-0650_RLatLon0.09_PT019H.grib2 2026-05-04 20:46 534K
20260504T18Z_MSC_RDPS_SpecificHumidity_IsbL-0700_RLatLon0.09_PT019H.grib2 2026-05-04 20:46 584K
20260504T18Z_MSC_RDPS_SpecificHumidity_IsbL-0750_RLatLon0.09_PT019H.grib2 2026-05-04 20:46 640K
20260504T18Z_MSC_RDPS_SpecificHumidity_IsbL-0800_RLatLon0.09_PT019H.grib2 2026-05-04 20:46 716K
20260504T18Z_MSC_RDPS_SpecificHumidity_IsbL-0850_RLatLon0.09_PT019H.grib2 2026-05-04 20:46 808K
20260504T18Z_MSC_RDPS_SpecificHumidity_IsbL-0875_RLatLon0.09_PT019H.grib2 2026-05-04 20:46 834K
20260504T18Z_MSC_RDPS_SpecificHumidity_IsbL-0900_RLatLon0.09_PT019H.grib2 2026-05-04 20:46 845K
20260504T18Z_MSC_RDPS_SpecificHumidity_IsbL-0925_RLatLon0.09_PT019H.grib2 2026-05-04 20:46 844K
20260504T18Z_MSC_RDPS_SpecificHumidity_IsbL-0950_RLatLon0.09_PT019H.grib2 2026-05-04 20:46 843K
20260504T18Z_MSC_RDPS_SpecificHumidity_IsbL-0970_RLatLon0.09_PT019H.grib2 2026-05-04 20:46 840K
20260504T18Z_MSC_RDPS_SpecificHumidity_IsbL-0985_RLatLon0.09_PT019H.grib2 2026-05-04 20:46 696K
20260504T18Z_MSC_RDPS_SpecificHumidity_IsbL-1000_RLatLon0.09_PT019H.grib2 2026-05-04 20:46 692K
20260504T18Z_MSC_RDPS_SpecificHumidity_IsbL-1015_RLatLon0.09_PT019H.grib2 2026-05-04 20:46 685K
20260504T18Z_MSC_RDPS_SpecificHumidity_Sfc_RLatLon0.09_PT019H.grib2 2026-05-04 20:46 303K
20260504T18Z_MSC_RDPS_StormRelativeHelicity_EtaL-10000_RLatLon0.09_PT019H.grib2 2026-05-04 20:46 1.1M
20260504T18Z_MSC_RDPS_StormSeverityIndex_EtaL-10000_RLatLon0.09_PT019H.grib2 2026-05-04 20:46 1.1M
20260504T18Z_MSC_RDPS_Thickness_IsbL-0850to0700_RLatLon0.09_PT019H.grib2 2026-05-04 20:46 179K
20260504T18Z_MSC_RDPS_Thickness_IsbL-1000to0500_RLatLon0.09_PT019H.grib2 2026-05-04 20:46 199K
20260504T18Z_MSC_RDPS_Thickness_IsbL-1000to0850_RLatLon0.09_PT019H.grib2 2026-05-04 20:46 264K
20260504T18Z_MSC_RDPS_TotalCloudCover_Sfc_RLatLon0.09_PT019H.grib2 2026-05-04 20:46 667K
20260504T18Z_MSC_RDPS_TotalTotalsIndex_Sfc_RLatLon0.09_PT019H.grib2 2026-05-04 20:46 2.5M
20260504T18Z_MSC_RDPS_UVIndex-ClearSky_Sfc_RLatLon0.09_PT019H.grib2 2026-05-04 20:46 193K
20260504T18Z_MSC_RDPS_UVIndex_Sfc_RLatLon0.09_PT019H.grib2 2026-05-04 20:46 425K
20260504T18Z_MSC_RDPS_UpwardLongwaveRadiationFlux_NTAtm_RLatLon0.09_PT019H.grib2 2026-05-04 20:46 487K
20260504T18Z_MSC_RDPS_UpwardShortwaveRadiationFlux_NTAtm_RLatLon0.09_PT019H.grib2 2026-05-04 20:46 364K
20260504T18Z_MSC_RDPS_VerticalVelocity_IsbL-0250_RLatLon0.09_PT019H.grib2 2026-05-04 20:46 558K
20260504T18Z_MSC_RDPS_VerticalVelocity_IsbL-0500_RLatLon0.09_PT019H.grib2 2026-05-04 20:46 553K
20260504T18Z_MSC_RDPS_VerticalVelocity_IsbL-0700_RLatLon0.09_PT019H.grib2 2026-05-04 20:46 441K
20260504T18Z_MSC_RDPS_VerticalVelocity_IsbL-0850_RLatLon0.09_PT019H.grib2 2026-05-04 20:46 711K
20260504T18Z_MSC_RDPS_VerticalWindShear_EtaL-6500_RLatLon0.09_PT019H.grib2 2026-05-04 20:46 1.2M
20260504T18Z_MSC_RDPS_WindChill_Sfc_RLatLon0.09_PT019H.grib2 2026-05-04 20:46 1.2M
20260504T18Z_MSC_RDPS_WindDir_AGL-10m_RLatLon0.09_PT019H.grib2 2026-05-04 20:46 1.0M
20260504T18Z_MSC_RDPS_WindDir_AGL-120m_RLatLon0.09_PT019H.grib2 2026-05-04 20:46 611K
20260504T18Z_MSC_RDPS_WindDir_AGL-40m_RLatLon0.09_PT019H.grib2 2026-05-04 20:46 640K
20260504T18Z_MSC_RDPS_WindDir_AGL-80m_RLatLon0.09_PT019H.grib2 2026-05-04 20:46 623K
20260504T18Z_MSC_RDPS_WindDir_IsbL-0001_RLatLon0.09_PT019H.grib2 2026-05-04 20:46 315K
20260504T18Z_MSC_RDPS_WindDir_IsbL-0005_RLatLon0.09_PT019H.grib2 2026-05-04 20:46 388K
20260504T18Z_MSC_RDPS_WindDir_IsbL-0010_RLatLon0.09_PT019H.grib2 2026-05-04 20:46 402K
20260504T18Z_MSC_RDPS_WindDir_IsbL-0020_RLatLon0.09_PT019H.grib2 2026-05-04 20:46 413K
20260504T18Z_MSC_RDPS_WindDir_IsbL-0030_RLatLon0.09_PT019H.grib2 2026-05-04 20:46 421K
20260504T18Z_MSC_RDPS_WindDir_IsbL-0050_RLatLon0.09_PT019H.grib2 2026-05-04 20:46 432K
20260504T18Z_MSC_RDPS_WindDir_IsbL-0100_RLatLon0.09_PT019H.grib2 2026-05-04 20:46 425K
20260504T18Z_MSC_RDPS_WindDir_IsbL-0150_RLatLon0.09_PT019H.grib2 2026-05-04 20:46 424K
20260504T18Z_MSC_RDPS_WindDir_IsbL-0175_RLatLon0.09_PT019H.grib2 2026-05-04 20:46 442K
20260504T18Z_MSC_RDPS_WindDir_IsbL-0200_RLatLon0.09_PT019H.grib2 2026-05-04 20:46 455K
20260504T18Z_MSC_RDPS_WindDir_IsbL-0225_RLatLon0.09_PT019H.grib2 2026-05-04 20:46 458K
20260504T18Z_MSC_RDPS_WindDir_IsbL-0250_RLatLon0.09_PT019H.grib2 2026-05-04 20:46 456K
20260504T18Z_MSC_RDPS_WindDir_IsbL-0275_RLatLon0.09_PT019H.grib2 2026-05-04 20:46 477K
20260504T18Z_MSC_RDPS_WindDir_IsbL-0300_RLatLon0.09_PT019H.grib2 2026-05-04 20:46 473K
20260504T18Z_MSC_RDPS_WindDir_IsbL-0350_RLatLon0.09_PT019H.grib2 2026-05-04 20:46 499K
20260504T18Z_MSC_RDPS_WindDir_IsbL-0400_RLatLon0.09_PT019H.grib2 2026-05-04 20:46 509K
20260504T18Z_MSC_RDPS_WindDir_IsbL-0450_RLatLon0.09_PT019H.grib2 2026-05-04 20:46 528K
20260504T18Z_MSC_RDPS_WindDir_IsbL-0500_RLatLon0.09_PT019H.grib2 2026-05-04 20:46 535K
20260504T18Z_MSC_RDPS_WindDir_IsbL-0550_RLatLon0.09_PT019H.grib2 2026-05-04 20:46 549K
20260504T18Z_MSC_RDPS_WindDir_IsbL-0600_RLatLon0.09_PT019H.grib2 2026-05-04 20:46 572K
20260504T18Z_MSC_RDPS_WindDir_IsbL-0650_RLatLon0.09_PT019H.grib2 2026-05-04 20:46 614K
20260504T18Z_MSC_RDPS_WindDir_IsbL-0700_RLatLon0.09_PT019H.grib2 2026-05-04 20:46 663K
20260504T18Z_MSC_RDPS_WindDir_IsbL-0750_RLatLon0.09_PT019H.grib2 2026-05-04 20:46 716K
20260504T18Z_MSC_RDPS_WindDir_IsbL-0800_RLatLon0.09_PT019H.grib2 2026-05-04 20:46 785K
20260504T18Z_MSC_RDPS_WindDir_IsbL-0850_RLatLon0.09_PT019H.grib2 2026-05-04 20:46 869K
20260504T18Z_MSC_RDPS_WindDir_IsbL-0875_RLatLon0.09_PT019H.grib2 2026-05-04 20:46 901K
20260504T18Z_MSC_RDPS_WindDir_IsbL-0900_RLatLon0.09_PT019H.grib2 2026-05-04 20:46 914K
20260504T18Z_MSC_RDPS_WindDir_IsbL-0925_RLatLon0.09_PT019H.grib2 2026-05-04 20:46 918K
20260504T18Z_MSC_RDPS_WindDir_IsbL-0950_RLatLon0.09_PT019H.grib2 2026-05-04 20:46 915K
20260504T18Z_MSC_RDPS_WindDir_IsbL-0970_RLatLon0.09_PT019H.grib2 2026-05-04 20:46 921K
20260504T18Z_MSC_RDPS_WindDir_IsbL-0985_RLatLon0.09_PT019H.grib2 2026-05-04 20:46 931K
20260504T18Z_MSC_RDPS_WindDir_IsbL-1000_RLatLon0.09_PT019H.grib2 2026-05-04 20:46 946K
20260504T18Z_MSC_RDPS_WindDir_IsbL-1015_RLatLon0.09_PT019H.grib2 2026-05-04 20:46 964K
20260504T18Z_MSC_RDPS_WindGust-Max_AGL-10m_RLatLon0.09_PT019H.grib2 2026-05-04 20:46 961K
20260504T18Z_MSC_RDPS_WindGust-Min_AGL-10m_RLatLon0.09_PT019H.grib2 2026-05-04 20:46 1.0M
20260504T18Z_MSC_RDPS_WindGust_AGL-10m_RLatLon0.09_PT019H.grib2 2026-05-04 20:46 1.0M
20260504T18Z_MSC_RDPS_WindSpeed_AGL-10m_RLatLon0.09_PT019H.grib2 2026-05-04 20:46 859K
20260504T18Z_MSC_RDPS_WindSpeed_AGL-120m_RLatLon0.09_PT019H.grib2 2026-05-04 20:46 554K
20260504T18Z_MSC_RDPS_WindSpeed_AGL-40m_RLatLon0.09_PT019H.grib2 2026-05-04 20:46 557K
20260504T18Z_MSC_RDPS_WindSpeed_AGL-80m_RLatLon0.09_PT019H.grib2 2026-05-04 20:46 555K
20260504T18Z_MSC_RDPS_WindSpeed_IsbL-0001_RLatLon0.09_PT019H.grib2 2026-05-04 20:46 254K
20260504T18Z_MSC_RDPS_WindSpeed_IsbL-0005_RLatLon0.09_PT019H.grib2 2026-05-04 20:46 383K
20260504T18Z_MSC_RDPS_WindSpeed_IsbL-0010_RLatLon0.09_PT019H.grib2 2026-05-04 20:46 399K
20260504T18Z_MSC_RDPS_WindSpeed_IsbL-0020_RLatLon0.09_PT019H.grib2 2026-05-04 20:46 418K
20260504T18Z_MSC_RDPS_WindSpeed_IsbL-0030_RLatLon0.09_PT019H.grib2 2026-05-04 20:46 323K
20260504T18Z_MSC_RDPS_WindSpeed_IsbL-0050_RLatLon0.09_PT019H.grib2 2026-05-04 20:46 355K
20260504T18Z_MSC_RDPS_WindSpeed_IsbL-0100_RLatLon0.09_PT019H.grib2 2026-05-04 20:46 479K
20260504T18Z_MSC_RDPS_WindSpeed_IsbL-0150_RLatLon0.09_PT019H.grib2 2026-05-04 20:46 381K
20260504T18Z_MSC_RDPS_WindSpeed_IsbL-0175_RLatLon0.09_PT019H.grib2 2026-05-04 20:46 428K
20260504T18Z_MSC_RDPS_WindSpeed_IsbL-0200_RLatLon0.09_PT019H.grib2 2026-05-04 20:46 440K
20260504T18Z_MSC_RDPS_WindSpeed_IsbL-0225_RLatLon0.09_PT019H.grib2 2026-05-04 20:46 443K
20260504T18Z_MSC_RDPS_WindSpeed_IsbL-0250_RLatLon0.09_PT019H.grib2 2026-05-04 20:46 446K
20260504T18Z_MSC_RDPS_WindSpeed_IsbL-0275_RLatLon0.09_PT019H.grib2 2026-05-04 20:46 463K
20260504T18Z_MSC_RDPS_WindSpeed_IsbL-0300_RLatLon0.09_PT019H.grib2 2026-05-04 20:46 462K
20260504T18Z_MSC_RDPS_WindSpeed_IsbL-0350_RLatLon0.09_PT019H.grib2 2026-05-04 20:46 473K
20260504T18Z_MSC_RDPS_WindSpeed_IsbL-0400_RLatLon0.09_PT019H.grib2 2026-05-04 20:46 477K
20260504T18Z_MSC_RDPS_WindSpeed_IsbL-0450_RLatLon0.09_PT019H.grib2 2026-05-04 20:46 463K
20260504T18Z_MSC_RDPS_WindSpeed_IsbL-0500_RLatLon0.09_PT019H.grib2 2026-05-04 20:46 464K
20260504T18Z_MSC_RDPS_WindSpeed_IsbL-0550_RLatLon0.09_PT019H.grib2 2026-05-04 20:46 463K
20260504T18Z_MSC_RDPS_WindSpeed_IsbL-0600_RLatLon0.09_PT019H.grib2 2026-05-04 20:46 590K
20260504T18Z_MSC_RDPS_WindSpeed_IsbL-0650_RLatLon0.09_PT019H.grib2 2026-05-04 20:46 610K
20260504T18Z_MSC_RDPS_WindSpeed_IsbL-0700_RLatLon0.09_PT019H.grib2 2026-05-04 20:46 635K
20260504T18Z_MSC_RDPS_WindSpeed_IsbL-0750_RLatLon0.09_PT019H.grib2 2026-05-04 20:46 668K
20260504T18Z_MSC_RDPS_WindSpeed_IsbL-0800_RLatLon0.09_PT019H.grib2 2026-05-04 20:46 720K
20260504T18Z_MSC_RDPS_WindSpeed_IsbL-0850_RLatLon0.09_PT019H.grib2 2026-05-04 20:46 835K
20260504T18Z_MSC_RDPS_WindSpeed_IsbL-0875_RLatLon0.09_PT019H.grib2 2026-05-04 20:46 859K
20260504T18Z_MSC_RDPS_WindSpeed_IsbL-0900_RLatLon0.09_PT019H.grib2 2026-05-04 20:46 873K
20260504T18Z_MSC_RDPS_WindSpeed_IsbL-0925_RLatLon0.09_PT019H.grib2 2026-05-04 20:46 882K
20260504T18Z_MSC_RDPS_WindSpeed_IsbL-0950_RLatLon0.09_PT019H.grib2 2026-05-04 20:46 881K
20260504T18Z_MSC_RDPS_WindSpeed_IsbL-0970_RLatLon0.09_PT019H.grib2 2026-05-04 20:46 878K
20260504T18Z_MSC_RDPS_WindSpeed_IsbL-0985_RLatLon0.09_PT019H.grib2 2026-05-04 20:46 873K
20260504T18Z_MSC_RDPS_WindSpeed_IsbL-1000_RLatLon0.09_PT019H.grib2 2026-05-04 20:46 866K
20260504T18Z_MSC_RDPS_WindSpeed_IsbL-1015_RLatLon0.09_PT019H.grib2 2026-05-04 20:46 858K
20260504T18Z_MSC_RDPS_WindU_AGL-10m_RLatLon0.09_PT019H.grib2 2026-05-04 20:46 440K
20260504T18Z_MSC_RDPS_WindU_AGL-120m_RLatLon0.09_PT019H.grib2 2026-05-04 20:46 428K
20260504T18Z_MSC_RDPS_WindU_AGL-40m_RLatLon0.09_PT019H.grib2 2026-05-04 20:46 548K
20260504T18Z_MSC_RDPS_WindU_AGL-80m_RLatLon0.09_PT019H.grib2 2026-05-04 20:46 548K
20260504T18Z_MSC_RDPS_WindU_IsbL-0001_RLatLon0.09_PT019H.grib2 2026-05-04 20:46 293K
20260504T18Z_MSC_RDPS_WindU_IsbL-0005_RLatLon0.09_PT019H.grib2 2026-05-04 20:46 326K
20260504T18Z_MSC_RDPS_WindU_IsbL-0010_RLatLon0.09_PT019H.grib2 2026-05-04 20:46 295K
20260504T18Z_MSC_RDPS_WindU_IsbL-0020_RLatLon0.09_PT019H.grib2 2026-05-04 20:46 312K
20260504T18Z_MSC_RDPS_WindU_IsbL-0030_RLatLon0.09_PT019H.grib2 2026-05-04 20:46 314K
20260504T18Z_MSC_RDPS_WindU_IsbL-0050_RLatLon0.09_PT019H.grib2 2026-05-04 20:46 384K
20260504T18Z_MSC_RDPS_WindU_IsbL-0100_RLatLon0.09_PT019H.grib2 2026-05-04 20:46 337K
20260504T18Z_MSC_RDPS_WindU_IsbL-0150_RLatLon0.09_PT019H.grib2 2026-05-04 20:46 398K
20260504T18Z_MSC_RDPS_WindU_IsbL-0175_RLatLon0.09_PT019H.grib2 2026-05-04 20:46 327K
20260504T18Z_MSC_RDPS_WindU_IsbL-0200_RLatLon0.09_PT019H.grib2 2026-05-04 20:46 337K
20260504T18Z_MSC_RDPS_WindU_IsbL-0225_RLatLon0.09_PT019H.grib2 2026-05-04 20:46 338K
20260504T18Z_MSC_RDPS_WindU_IsbL-0250_RLatLon0.09_PT019H.grib2 2026-05-04 20:46 338K
20260504T18Z_MSC_RDPS_WindU_IsbL-0275_RLatLon0.09_PT019H.grib2 2026-05-04 20:46 353K
20260504T18Z_MSC_RDPS_WindU_IsbL-0300_RLatLon0.09_PT019H.grib2 2026-05-04 20:46 350K
20260504T18Z_MSC_RDPS_WindU_IsbL-0350_RLatLon0.09_PT019H.grib2 2026-05-04 20:46 359K
20260504T18Z_MSC_RDPS_WindU_IsbL-0400_RLatLon0.09_PT019H.grib2 2026-05-04 20:46 362K
20260504T18Z_MSC_RDPS_WindU_IsbL-0450_RLatLon0.09_PT019H.grib2 2026-05-04 20:46 365K
20260504T18Z_MSC_RDPS_WindU_IsbL-0500_RLatLon0.09_PT019H.grib2 2026-05-04 20:46 470K
20260504T18Z_MSC_RDPS_WindU_IsbL-0550_RLatLon0.09_PT019H.grib2 2026-05-04 20:46 469K
20260504T18Z_MSC_RDPS_WindU_IsbL-0600_RLatLon0.09_PT019H.grib2 2026-05-04 20:46 479K
20260504T18Z_MSC_RDPS_WindU_IsbL-0650_RLatLon0.09_PT019H.grib2 2026-05-04 20:46 497K
20260504T18Z_MSC_RDPS_WindU_IsbL-0700_RLatLon0.09_PT019H.grib2 2026-05-04 20:46 503K
20260504T18Z_MSC_RDPS_WindU_IsbL-0750_RLatLon0.09_PT019H.grib2 2026-05-04 20:46 532K
20260504T18Z_MSC_RDPS_WindU_IsbL-0800_RLatLon0.09_PT019H.grib2 2026-05-04 20:46 579K
20260504T18Z_MSC_RDPS_WindU_IsbL-0850_RLatLon0.09_PT019H.grib2 2026-05-04 20:46 640K
20260504T18Z_MSC_RDPS_WindU_IsbL-0875_RLatLon0.09_PT019H.grib2 2026-05-04 20:46 660K
20260504T18Z_MSC_RDPS_WindU_IsbL-0900_RLatLon0.09_PT019H.grib2 2026-05-04 20:46 670K
20260504T18Z_MSC_RDPS_WindU_IsbL-0925_RLatLon0.09_PT019H.grib2 2026-05-04 20:46 675K
20260504T18Z_MSC_RDPS_WindU_IsbL-0950_RLatLon0.09_PT019H.grib2 2026-05-04 20:46 671K
20260504T18Z_MSC_RDPS_WindU_IsbL-0970_RLatLon0.09_PT019H.grib2 2026-05-04 20:46 666K
20260504T18Z_MSC_RDPS_WindU_IsbL-0985_RLatLon0.09_PT019H.grib2 2026-05-04 20:46 801K
20260504T18Z_MSC_RDPS_WindU_IsbL-1000_RLatLon0.09_PT019H.grib2 2026-05-04 20:46 798K
20260504T18Z_MSC_RDPS_WindU_IsbL-1015_RLatLon0.09_PT019H.grib2 2026-05-04 20:46 793K
20260504T18Z_MSC_RDPS_WindV_AGL-10m_RLatLon0.09_PT019H.grib2 2026-05-04 20:46 441K
20260504T18Z_MSC_RDPS_WindV_AGL-120m_RLatLon0.09_PT019H.grib2 2026-05-04 20:46 428K
20260504T18Z_MSC_RDPS_WindV_AGL-40m_RLatLon0.09_PT019H.grib2 2026-05-04 20:46 550K
20260504T18Z_MSC_RDPS_WindV_AGL-80m_RLatLon0.09_PT019H.grib2 2026-05-04 20:46 430K
20260504T18Z_MSC_RDPS_WindV_IsbL-0001_RLatLon0.09_PT019H.grib2 2026-05-04 20:46 247K
20260504T18Z_MSC_RDPS_WindV_IsbL-0005_RLatLon0.09_PT019H.grib2 2026-05-04 20:46 287K
20260504T18Z_MSC_RDPS_WindV_IsbL-0010_RLatLon0.09_PT019H.grib2 2026-05-04 20:46 298K
20260504T18Z_MSC_RDPS_WindV_IsbL-0020_RLatLon0.09_PT019H.grib2 2026-05-04 20:46 314K
20260504T18Z_MSC_RDPS_WindV_IsbL-0030_RLatLon0.09_PT019H.grib2 2026-05-04 20:46 353K
20260504T18Z_MSC_RDPS_WindV_IsbL-0050_RLatLon0.09_PT019H.grib2 2026-05-04 20:46 348K
20260504T18Z_MSC_RDPS_WindV_IsbL-0100_RLatLon0.09_PT019H.grib2 2026-05-04 20:46 336K
20260504T18Z_MSC_RDPS_WindV_IsbL-0150_RLatLon0.09_PT019H.grib2 2026-05-04 20:46 395K
20260504T18Z_MSC_RDPS_WindV_IsbL-0175_RLatLon0.09_PT019H.grib2 2026-05-04 20:46 324K
20260504T18Z_MSC_RDPS_WindV_IsbL-0200_RLatLon0.09_PT019H.grib2 2026-05-04 20:46 335K
20260504T18Z_MSC_RDPS_WindV_IsbL-0225_RLatLon0.09_PT019H.grib2 2026-05-04 20:46 363K
20260504T18Z_MSC_RDPS_WindV_IsbL-0250_RLatLon0.09_PT019H.grib2 2026-05-04 20:46 364K
20260504T18Z_MSC_RDPS_WindV_IsbL-0275_RLatLon0.09_PT019H.grib2 2026-05-04 20:46 377K
20260504T18Z_MSC_RDPS_WindV_IsbL-0300_RLatLon0.09_PT019H.grib2 2026-05-04 20:46 375K
20260504T18Z_MSC_RDPS_WindV_IsbL-0350_RLatLon0.09_PT019H.grib2 2026-05-04 20:46 358K
20260504T18Z_MSC_RDPS_WindV_IsbL-0400_RLatLon0.09_PT019H.grib2 2026-05-04 20:46 361K
20260504T18Z_MSC_RDPS_WindV_IsbL-0450_RLatLon0.09_PT019H.grib2 2026-05-04 20:46 364K
20260504T18Z_MSC_RDPS_WindV_IsbL-0500_RLatLon0.09_PT019H.grib2 2026-05-04 20:46 468K
20260504T18Z_MSC_RDPS_WindV_IsbL-0550_RLatLon0.09_PT019H.grib2 2026-05-04 20:46 469K
20260504T18Z_MSC_RDPS_WindV_IsbL-0600_RLatLon0.09_PT019H.grib2 2026-05-04 20:46 476K
20260504T18Z_MSC_RDPS_WindV_IsbL-0650_RLatLon0.09_PT019H.grib2 2026-05-04 20:46 477K
20260504T18Z_MSC_RDPS_WindV_IsbL-0700_RLatLon0.09_PT019H.grib2 2026-05-04 20:46 514K
20260504T18Z_MSC_RDPS_WindV_IsbL-0750_RLatLon0.09_PT019H.grib2 2026-05-04 20:46 542K
20260504T18Z_MSC_RDPS_WindV_IsbL-0800_RLatLon0.09_PT019H.grib2 2026-05-04 20:46 585K
20260504T18Z_MSC_RDPS_WindV_IsbL-0850_RLatLon0.09_PT019H.grib2 2026-05-04 20:46 635K
20260504T18Z_MSC_RDPS_WindV_IsbL-0875_RLatLon0.09_PT019H.grib2 2026-05-04 20:46 657K
20260504T18Z_MSC_RDPS_WindV_IsbL-0900_RLatLon0.09_PT019H.grib2 2026-05-04 20:46 667K
20260504T18Z_MSC_RDPS_WindV_IsbL-0925_RLatLon0.09_PT019H.grib2 2026-05-04 20:46 674K
20260504T18Z_MSC_RDPS_WindV_IsbL-0950_RLatLon0.09_PT019H.grib2 2026-05-04 20:46 670K
20260504T18Z_MSC_RDPS_WindV_IsbL-0970_RLatLon0.09_PT019H.grib2 2026-05-04 20:46 667K
20260504T18Z_MSC_RDPS_WindV_IsbL-0985_RLatLon0.09_PT019H.grib2 2026-05-04 20:46 664K
20260504T18Z_MSC_RDPS_WindV_IsbL-1000_RLatLon0.09_PT019H.grib2 2026-05-04 20:46 800K
20260504T18Z_MSC_RDPS_WindV_IsbL-1015_RLatLon0.09_PT019H.grib2 2026-05-04 20:46 795K